�N����,����,�~����,�C��,���x,�C��,����,���ϕ���,�ő�u�ԕ���,�ő厞����,���˗�,�I�_���x,�n�����x,�ő啗���N��,DTYPE
"22/03/21","00:10",0.0,6.0,82.8,1015.2,324.6,3.1,4.9,315.6,0.00,3.3,10.3,"00:01:36",1
"22/03/21","00:20",0.0,5.7,82.3,1015.4,319.7,3.0,5.0,340.6,0.00,3.0,10.2,"00:16:32",1
"22/03/21","00:30",0.0,5.6,82.5,1015.4,297.4,2.3,4.0,309.6,0.00,2.9,10.2,"00:20:32",1
"22/03/21","00:40",0.0,5.2,83.3,1015.2,298.1,2.0,3.2,316.0,0.00,2.6,10.1,"00:31:52",1
"22/03/21","00:50",0.0,5.1,84.0,1015.4,299.0,1.6,2.1,313.4,0.00,2.7,10.0,"00:43:20",1
"22/03/21","01:00",0.0,5.1,84.8,1015.4,282.8,1.7,2.1,267.0,0.00,2.8,10.1,"00:56:32",1
"22/03/21","01:10",0.0,5.1,85.5,1015.2,309.2,2.0,3.6,332.3,0.00,2.9,10.1,"01:09:12",1
"22/03/21","01:20",0.0,5.1,86.0,1015.4,315.4,2.3,3.2,322.7,0.00,3.0,10.2,"01:17:44",1
"22/03/21","01:30",0.0,5.0,86.5,1015.4,295.4,2.2,2.8,309.2,0.00,3.0,10.1,"01:21:04",1
"22/03/21","01:40",0.0,4.9,87.0,1015.2,320.1,2.1,3.3,327.0,0.00,3.0,10.0,"01:35:12",1
"22/03/21","01:50",0.0,5.1,87.4,1015.6,328.3,2.5,3.7,331.8,0.00,3.2,9.8,"01:46:24",1
"22/03/21","02:00",0.0,5.3,87.4,1016.1,315.9,2.7,4.0,324.8,0.00,3.4,10.0,"01:59:28",1
"22/03/21","02:10",0.0,5.5,87.1,1015.9,302.1,2.5,3.9,309.7,0.00,3.6,9.9,"02:00:24",1
"22/03/21","02:20",0.0,5.4,86.9,1016.1,321.7,2.0,2.8,332.5,0.00,3.4,9.9,"02:17:44",1
"22/03/21","02:30",0.0,5.2,87.1,1015.9,334.4,2.3,3.3,336.8,0.00,3.3,9.9,"02:29:12",1
"22/03/21","02:40",0.0,5.1,87.3,1015.9,332.8,2.2,3.6,329.2,0.00,3.2,10.0,"02:39:28",1
"22/03/21","02:50",0.0,5.1,87.3,1015.9,335.9,2.5,3.5,355.6,0.00,3.2,9.9,"02:44:00",1
"22/03/21","03:00",0.0,5.2,87.3,1015.9,336.7,2.2,3.7,334.6,0.00,3.3,9.9,"02:57:52",1
"22/03/21","03:10",0.0,5.1,87.3,1015.9,336.5,2.6,4.2,343.1,0.00,3.2,9.8,"03:09:20",1
"22/03/21","03:20",0.0,4.9,87.5,1015.6,327.2,3.2,4.8,322.5,0.00,3.0,9.7,"03:18:40",1
"22/03/21","03:30",0.0,4.9,87.7,1015.6,311.3,3.6,4.7,327.7,0.00,3.1,9.8,"03:25:20",1
"22/03/21","03:40",0.0,4.7,88.0,1015.9,300.2,3.2,4.4,313.5,0.00,2.9,9.6,"03:34:48",1
"22/03/21","03:50",0.0,4.7,88.1,1015.4,306.7,3.4,5.6,322.2,0.00,2.9,9.8,"03:40:40",1
"22/03/21","04:00",0.0,4.8,88.3,1015.9,321.3,3.0,4.8,337.9,0.00,3.1,9.7,"03:55:28",1
"22/03/21","04:10",0.0,4.8,88.3,1015.9,323.9,3.1,4.7,318.0,0.00,3.1,9.8,"04:07:52",1
"22/03/21","04:20",0.0,4.9,88.3,1015.9,319.5,3.7,5.1,313.7,0.00,3.2,9.8,"04:11:36",1
"22/03/21","04:30",0.0,4.9,88.1,1015.9,314.8,3.0,4.2,332.5,0.00,3.1,9.5,"04:20:32",1
"22/03/21","04:40",0.0,4.8,88.0,1016.1,325.1,3.0,4.1,319.0,0.00,3.0,9.6,"04:32:48",1
"22/03/21","04:50",0.0,4.7,88.0,1015.9,323.5,2.5,4.1,315.7,0.00,2.9,9.7,"04:40:48",1
"22/03/21","05:00",0.0,4.5,88.2,1016.1,328.9,2.6,4.2,328.3,0.00,2.8,9.5,"04:57:44",1
"22/03/21","05:10",0.0,4.8,88.1,1016.6,320.1,3.2,4.5,320.3,0.00,3.0,9.7,"05:04:24",1
"22/03/21","05:20",0.0,4.8,88.0,1016.1,307.6,3.7,4.9,305.6,0.00,3.0,9.7,"05:12:56",1
"22/03/21","05:30",0.0,4.9,87.7,1016.6,319.3,3.9,5.7,331.2,0.00,3.1,9.4,"05:28:00",1
"22/03/21","05:40",0.0,4.7,87.5,1016.8,329.8,2.8,4.7,325.7,0.00,2.8,9.4,"05:30:24",1
"22/03/21","05:50",0.0,4.4,87.7,1016.6,330.7,2.3,3.3,336.0,0.00,2.6,9.6,"05:44:08",1
"22/03/21","06:00",0.0,4.3,88.1,1016.6,329.7,2.3,3.5,330.0,0.00,2.5,9.3,"05:54:40",1
"22/03/21","06:10",0.0,4.2,88.4,1016.6,333.3,2.7,3.9,329.2,0.00,2.5,9.5,"06:02:24",1
"22/03/21","06:20",0.0,4.2,88.8,1017.1,318.2,2.7,3.5,318.5,0.00,2.6,9.3,"06:14:24",1
"22/03/21","06:30",0.0,4.3,89.0,1017.3,326.9,3.7,6.0,317.0,0.00,2.7,9.2,"06:26:24",1
"22/03/21","06:40",0.0,4.2,89.1,1017.1,314.4,3.4,5.2,310.5,0.00,2.6,9.3,"06:30:40",1
"22/03/21","06:50",0.0,4.3,89.1,1017.8,310.6,3.0,4.1,321.7,0.00,2.7,9.4,"06:41:04",1
"22/03/21","07:00",0.0,4.1,89.3,1017.5,277.8,2.5,3.1,272.6,0.00,2.5,9.5,"06:52:40",1
"22/03/21","07:10",0.0,4.3,89.4,1017.8,286.3,2.7,4.7,324.2,0.01,2.8,9.3,"07:09:28",1
"22/03/21","07:20",0.0,4.6,89.4,1017.5,299.5,2.7,4.3,315.4,0.02,3.0,9.0,"07:11:44",1
"22/03/21","07:30",0.0,4.7,89.4,1018.2,333.0,3.2,4.7,346.5,0.03,3.1,9.3,"07:21:52",1
"22/03/21","07:40",0.0,4.8,89.3,1018.2,330.6,3.1,4.4,322.2,0.04,3.2,9.3,"07:30:08",1
"22/03/21","07:50",0.0,5.0,89.1,1018.0,331.3,2.5,4.0,346.1,0.05,3.4,9.2,"07:43:52",1
"22/03/21","08:00",0.0,5.3,88.8,1018.2,341.1,2.2,4.4,340.0,0.05,3.6,9.1,"07:50:40",1
"22/03/21","08:10",0.0,5.5,88.2,1018.5,336.3,2.0,3.4,342.7,0.06,3.7,9.0,"08:09:44",1
"22/03/21","08:20",0.0,5.7,87.7,1018.5,335.8,1.7,3.2,334.8,0.07,3.9,9.2,"08:18:16",1
"22/03/21","08:30",0.0,6.1,87.2,1018.5,322.8,1.3,2.6,330.8,0.08,4.2,9.0,"08:20:32",1
"22/03/21","08:40",0.0,6.5,86.6,1019.0,321.1,1.2,2.2,335.9,0.10,4.5,9.1,"08:35:28",1
"22/03/21","08:50",0.0,6.8,85.9,1019.2,268.2,1.8,2.9,251.2,0.11,4.6,9.0,"08:45:46",1
"22/03/21","09:00",0.0,6.9,85.7,1019.4,295.3,2.8,4.4,300.7,0.14,4.7,9.2,"08:54:56",1
"22/03/21","09:10",0.0,7.6,85.1,1019.4,264.1,1.5,2.5,296.5,0.16,5.3,9.3,"09:00:40",1
"22/03/21","09:20",0.0,7.8,84.3,1019.2,251.1,1.2,2.6,298.1,0.16,5.4,9.2,"09:19:46",1
"22/03/21","09:30",0.0,8.0,83.3,1019.7,287.4,1.8,3.5,307.6,0.16,5.4,9.2,"09:20:02",1
"22/03/21","09:40",0.0,8.1,81.5,1020.4,322.6,3.4,4.9,320.4,0.22,5.2,9.2,"09:32:32",1
"22/03/21","09:50",0.0,8.7,79.6,1020.6,318.2,3.1,5.0,327.0,0.25,5.4,9.3,"09:41:12",1
"22/03/21","10:00",0.0,9.2,76.7,1020.1,319.8,2.7,4.1,320.4,0.27,5.4,9.2,"09:54:40",1
"22/03/21","10:10",0.0,9.7,74.0,1020.4,301.7,2.2,3.6,342.8,0.31,5.3,9.4,"10:08:56",1
"22/03/21","10:20",0.0,10.2,70.7,1020.4,294.7,2.2,4.2,345.1,0.36,5.2,9.4,"10:19:52",1
"22/03/21","10:30",0.0,10.7,68.9,1020.4,280.4,2.2,4.5,329.8,0.36,5.3,9.4,"10:20:08",1
"22/03/21","10:40",0.0,10.4,66.6,1020.4,256.6,2.5,3.9,276.4,0.32,4.5,9.6,"10:38:00",1
"22/03/21","10:50",0.0,10.8,65.0,1020.1,267.6,2.1,4.1,244.6,0.29,4.5,9.4,"10:41:52",1
"22/03/21","11:00",0.0,11.2,64.9,1020.4,289.4,2.2,3.7,322.6,0.42,4.9,9.4,"10:55:36",1
"22/03/21","11:10",0.0,11.2,63.8,1020.1,333.4,2.3,4.2,329.4,0.32,4.6,9.6,"11:02:32",1
"22/03/21","11:20",0.0,11.4,62.9,1020.1,195.0,1.2,2.1,195.0,0.25,4.6,9.7,"11:17:36",1
"22/03/21","11:30",0.0,11.8,62.2,1020.1,228.2,1.6,2.8,245.1,0.35,4.8,9.6,"11:26:16",1
"22/03/21","11:40",0.0,11.6,61.4,1020.1,299.0,1.7,3.6,342.7,0.19,4.5,9.8,"11:38:56",1
"22/03/21","11:50",0.0,11.4,61.6,1020.4,290.2,2.2,4.4,335.8,0.17,4.3,9.9,"11:45:36",1
"22/03/21","12:00",0.0,11.7,60.8,1020.1,275.4,2.0,3.4,298.1,0.25,4.4,9.8,"11:55:36",1
"22/03/21","12:10",0.0,11.8,60.8,1019.9,294.0,2.3,4.8,337.3,0.18,4.5,9.9,"12:07:20",1
"22/03/21","12:20",0.0,11.7,59.6,1019.7,324.3,3.0,5.8,313.2,0.31,4.1,10.0,"12:19:04",1
"22/03/21","12:30",0.0,12.0,58.3,1019.4,352.8,3.0,5.7,336.7,0.35,4.1,10.0,"12:22:48",1
"22/03/21","12:40",0.0,11.4,59.5,1019.0,343.3,3.6,7.2,307.6,0.16,3.8,10.0,"12:36:08",1
"22/03/21","12:50",0.0,11.7,58.1,1018.5,322.4,3.9,6.4,337.2,0.29,3.8,10.2,"12:46:48",1
"22/03/21","13:00",0.0,11.8,58.2,1018.2,311.3,3.4,5.2,317.9,0.22,3.9,10.3,"12:55:12",1
"22/03/21","13:10",0.0,12.3,55.4,1017.8,339.2,2.3,4.5,326.4,0.39,3.7,10.2,"13:00:02",1
"22/03/21","13:20",0.0,12.2,56.7,1018.0,304.1,4.0,5.5,307.9,0.38,3.9,10.4,"13:16:40",1
"22/03/21","13:30",0.0,13.0,55.8,1018.0,282.7,3.4,4.7,245.9,0.63,4.4,10.5,"13:27:04",1
"22/03/21","13:40",0.0,12.6,53.4,1018.0,272.9,2.6,4.5,330.7,0.26,3.4,10.3,"13:34:56",1
"22/03/21","13:50",0.0,12.3,54.8,1018.0,279.1,2.3,4.4,314.8,0.16,3.5,10.5,"13:44:00",1
"22/03/21","14:00",0.0,13.1,53.8,1017.8,274.1,3.0,4.7,247.0,0.48,4.0,10.5,"13:52:56",1
"22/03/21","14:10",0.0,14.2,52.8,1017.5,271.3,2.7,3.9,308.6,0.64,4.8,10.6,"14:03:04",1
"22/03/21","14:20",0.0,14.1,49.7,1018.2,276.7,1.7,4.8,313.3,0.42,3.8,10.8,"14:16:08",1
"22/03/21","14:30",0.0,13.1,55.6,1017.8,312.6,3.4,6.0,331.7,0.27,4.5,10.9,"14:27:20",1
"22/03/21","14:40",0.0,13.3,53.7,1018.0,326.5,2.8,5.2,343.4,0.32,4.2,10.7,"14:33:04",1
"22/03/21","14:50",0.0,14.2,53.0,1018.0,306.9,1.7,4.3,335.1,0.40,4.8,11.0,"14:49:52",1
"22/03/21","15:00",0.0,14.5,51.1,1017.8,331.6,2.0,3.5,339.8,0.47,4.6,10.9,"14:51:36",1
"22/03/21","15:10",0.0,14.1,52.3,1017.8,338.8,2.2,4.4,348.0,0.33,4.5,11.1,"15:08:16",1
"22/03/21","15:20",0.0,13.3,51.2,1017.8,358.5,1.8,3.6,349.1,0.16,3.5,11.2,"15:19:44",1
"22/03/21","15:30",0.0,13.0,53.4,1017.5,355.4,2.2,5.0,345.6,0.14,3.8,11.2,"15:20:24",1
"22/03/21","15:40",0.0,12.7,54.2,1017.1,356.0,2.0,3.6,340.0,0.11,3.7,11.3,"15:35:20",1
"22/03/21","15:50",0.0,12.6,54.6,1016.8,2.2,1.7,2.8,3.0,0.10,3.7,11.4,"15:44:56",1
"22/03/21","16:00",0.0,12.8,54.0,1016.6,345.9,1.5,3.2,338.6,0.11,3.8,11.3,"15:55:20",1
"22/03/21","16:10",0.0,13.2,53.4,1016.6,349.3,1.0,2.0,356.0,0.11,4.0,11.3,"16:03:52",1
"22/03/21","16:20",0.0,12.8,54.7,1017.1,351.7,2.2,3.9,352.6,0.08,4.0,11.3,"16:16:48",1
"22/03/21","16:30",0.0,12.5,56.4,1016.6,2.9,2.1,4.8,339.3,0.07,4.1,11.5,"16:29:44",1
"22/03/21","16:40",0.0,12.5,56.4,1016.4,357.7,2.1,4.8,348.2,0.10,4.1,11.5,"16:34:16",1
"22/03/21","16:50",0.0,12.6,55.1,1016.4,347.0,2.0,5.1,347.4,0.09,3.9,11.4,"16:49:04",1
"22/03/21","17:00",0.0,12.6,55.6,1016.4,341.9,2.2,4.4,343.0,0.10,4.0,11.5,"16:57:52",1
"22/03/21","17:10",0.0,12.9,54.2,1016.1,339.7,2.0,4.4,334.5,0.09,3.9,11.4,"17:04:56",1
"22/03/21","17:20",0.0,12.7,54.5,1016.1,339.7,2.3,3.5,342.4,0.07,3.8,11.4,"17:19:04",1
"22/03/21","17:30",0.0,12.5,55.4,1016.1,337.3,2.0,3.4,339.8,0.06,3.9,11.6,"17:23:12",1
"22/03/21","17:40",0.0,12.3,55.8,1016.4,332.1,2.2,3.5,349.4,0.05,3.8,11.4,"17:37:52",1
"22/03/21","17:50",0.0,11.8,57.7,1016.4,336.4,1.8,2.9,329.6,0.02,3.8,11.4,"17:41:28",1
"22/03/21","18:00",0.0,11.6,59.9,1016.4,332.9,2.3,3.7,326.5,0.01,4.1,11.3,"17:55:12",1
"22/03/21","18:10",0.0,11.2,62.1,1016.6,334.7,2.2,3.3,337.7,0.01,4.3,11.6,"18:01:52",1
"22/03/21","18:20",0.0,10.9,63.1,1016.8,334.1,2.1,3.1,328.8,0.00,4.2,11.5,"18:13:36",1
"22/03/21","18:30",0.0,10.5,64.3,1016.8,340.8,1.6,2.5,314.6,0.00,4.1,11.5,"18:29:12",1
"22/03/21","18:40",0.0,10.3,65.2,1017.1,343.3,2.1,4.0,322.9,0.00,4.1,11.4,"18:37:28",1
"22/03/21","18:50",0.0,10.0,65.7,1016.8,347.2,2.2,4.5,344.3,0.00,3.9,11.5,"18:49:28",1
"22/03/21","19:00",0.0,9.8,66.7,1017.1,327.8,2.1,4.4,344.2,0.00,3.9,11.4,"18:51:44",1
"22/03/21","19:10",0.0,9.5,67.5,1017.1,330.4,2.2,4.2,314.7,0.00,3.8,11.4,"19:04:32",1
"22/03/21","19:20",0.0,9.5,67.7,1017.3,327.8,2.6,5.0,345.9,0.00,3.9,11.5,"19:12:00",1
"22/03/21","19:30",0.0,9.4,67.8,1016.8,328.5,2.3,3.5,337.2,0.00,3.8,11.3,"19:21:20",1
"22/03/21","19:40",0.0,9.4,67.5,1017.8,312.8,2.3,4.5,317.0,0.00,3.7,11.4,"19:34:24",1
"22/03/21","19:50",0.0,9.2,68.2,1017.8,313.0,3.0,4.2,322.1,0.00,3.7,11.3,"19:42:24",1
"22/03/21","20:00",0.0,9.0,68.5,1017.8,331.1,2.3,4.3,309.9,0.00,3.6,11.3,"19:55:20",1
"22/03/21","20:10",0.0,8.9,67.8,1018.0,348.4,2.3,4.4,350.3,0.00,3.3,11.2,"20:06:32",1
"22/03/21","20:20",0.0,8.9,67.2,1018.0,0.3,1.3,2.6,354.8,0.00,3.2,11.3,"20:14:32",1
"22/03/21","20:30",0.0,8.9,66.8,1018.0,349.2,0.8,1.4,351.4,0.00,3.1,11.2,"20:23:36",1
"22/03/21","20:40",0.0,8.8,66.9,1017.8,327.6,1.5,2.4,317.6,0.00,3.0,11.1,"20:32:40",1
"22/03/21","20:50",0.0,8.6,67.0,1017.5,327.5,1.7,2.8,331.9,0.00,2.9,11.2,"20:49:20",1
"22/03/21","21:00",0.0,8.5,67.3,1018.0,337.7,1.5,2.2,343.7,0.00,2.8,11.1,"20:53:52",1
"22/03/21","21:10",0.0,8.4,68.4,1018.0,342.4,1.7,2.4,348.2,0.00,3.0,11.0,"21:06:32",1
"22/03/21","21:20",0.0,8.0,69.8,1017.5,301.1,1.7,2.6,310.2,0.00,2.9,10.9,"21:11:36",1
"22/03/21","21:30",0.0,7.8,70.7,1017.5,317.2,1.8,3.1,334.3,0.00,2.9,11.1,"21:20:02",1
"22/03/21","21:40",0.0,7.9,71.0,1017.3,329.4,2.2,2.9,308.1,0.00,3.0,11.0,"21:31:28",1
"22/03/21","21:50",0.0,8.1,72.4,1017.3,311.1,2.8,3.3,323.6,0.00,3.5,10.8,"21:42:56",1
"22/03/21","22:00",0.0,7.8,73.5,1017.3,306.9,2.5,3.6,315.6,0.00,3.4,10.9,"21:57:52",1
"22/03/21","22:10",0.0,7.6,74.0,1017.3,296.9,2.5,3.4,311.6,0.00,3.3,10.8,"22:05:52",1
"22/03/21","22:20",0.0,7.6,74.4,1017.1,307.1,2.3,3.2,319.6,0.00,3.4,10.8,"22:10:08",1
"22/03/21","22:30",0.0,7.6,74.5,1017.3,315.0,2.8,3.3,315.6,0.00,3.4,10.8,"22:20:32",1
"22/03/21","22:40",0.0,7.6,74.3,1017.3,307.2,3.1,5.4,328.7,0.00,3.4,10.8,"22:36:24",1
"22/03/21","22:50",0.0,7.7,73.8,1017.3,322.0,3.2,5.2,328.9,0.00,3.4,10.9,"22:48:16",1
"22/03/21","23:00",0.0,7.6,74.1,1017.8,329.7,2.6,3.3,338.5,0.00,3.3,10.8,"22:54:00",1
"22/03/21","23:10",0.0,7.5,74.7,1017.8,320.6,2.8,4.2,320.1,0.00,3.3,10.7,"23:07:52",1
"22/03/21","23:20",0.0,7.6,74.9,1017.5,329.2,3.2,5.2,334.1,0.00,3.5,10.8,"23:17:52",1
"22/03/21","23:30",0.0,7.4,75.3,1017.5,329.9,2.7,4.0,349.1,0.00,3.4,10.8,"23:22:08",1
"22/03/21","23:40",0.0,7.4,75.5,1017.3,318.6,2.5,4.3,321.2,0.00,3.4,10.6,"23:34:40",1
"22/03/21","23:50",0.0,7.4,75.6,1017.5,326.1,2.5,3.4,329.6,0.00,3.4,10.9,"23:48:56",1
"22/03/21","24:00",0.0,7.3,76.0,1017.5,329.9,2.6,3.9,337.0,0.00,3.4,10.7,"23:56:08",1
